Location: ?ern� Novina
(50.6762°N, 14.8696°E)
Time: 00:57:44
(UTC+00:00)

Cosmos 192 - Pass Details

Date: 03 March 2021
Orbit: 700 x 714 km, 74.0° (Epoch: 13 April)

Event Time Altitude Azimuth Distance (km) Brightness Sun altitude
Rises 19:16:05 0° 206° (SSW) 3,076 7.7 -24.3°
Reaches altitude 10° 19:18:23 10° 207° (SSW) 2,163 6.9 -24.6°
Maximum altitude 19:23:16 79° 295° (WNW) 722 4.3 -25.3°
Drops below altitude 10° 19:28:13 10° 22° (NNE) 2,186 6.9 -26.1°
Sets 19:30:34 0° 24° (NNE) 3,111 7.7 -26.4°
